[[{"header":{"parameterUnit":"m.s-1","parameterCategory":2,"la1":30.2991,"la2":30.254,"lo1":-89.0895,"lo2":-89.0444,"dy":0.0017,"dx":0.0017,"nx":28,"ny":28,"refTime":"2023-11-14T09:00:00:Z","depth":"0","parameterNumber":2,"parameterNumberName":"U-component_of_CURRENTS"},"data":[0,0,0,0,0,0,0,0,0,0,0,0,0,0,0,0,0,0,0,0,0,0,0,0,0,0,0,0,0,0,0,0,0,0,0,0,0,0,0,0,0,0,0,0,0,0,0,0,0,0,0,0,0,0,0,0,0,0,-0.2652,-0.2652,0,-0.2663,-0.2663,-0.2663,-0.2627,-0.2627,-0.2626,-0.2625,-0.2574,-0.2573,-0.2572,0,0,0,0,0,0,0,0,0,0,0,0,0,-0.2559,-0.2561,-0.2652,-0.2652,-0.2653,-0.2663,-0.2663,-0.2663,-0.2627,-0.2627,-0.2626,-0.2625,-0.2574,-0.2573,-0.2572,0,0,0,0,0,0,0,0,0,0,0,0,0,-0.2584,-0.2562,-0.2652,-0.2639,-0.2639,-0.2664,-0.2663,-0.2663,-0.2628,-0.2627,-0.2626,-0.2625,-0.2574,-0.2573,-0.2572,-0.2586,0,0,-0.2569,-0.2568,0,0,0,0,0,0,0,0,-0.2583,-0.2587,-0.2641,-0.264,-0.264,-0.2647,-0.2612,-0.2636,-0.2628,-0.2627,-0.2625,-0.2624,-0.2596,-0.2593,-0.2592,-0.2584,-0.2582,-0.2569,-0.2568,-0.2567,-0.2567,0,0,0,0,0,0,0,-0.2581,-0.2586,-0.2652,-0.2641,-0.2641,-0.262,-0.2622,-0.2616,-0.2613,-0.2627,-0.2626,-0.2634,-0.2594,-0.2593,-0.2591,-0.2581,-0.2569,-0.2568,-0.2567,-0.2567,-0.2581,-0.2582,0,0,0,0,0,0,-0.2592,-0.2585,-0.2652,-0.2653,-0.2613,-0.2623,-0.2625,-0.2642,-0.2614,-0.2611,-0.2635,-0.2633,-0.2596,-0.2592,-0.2589,-0.2616,-0.2567,-0.2566,-0.2566,-0.258,-0.2582,-0.2583,0,0,0,0,0,0,-0.259,-0.2598,-0.2651,-0.2622,-0.2627,-0.2627,-0.2645,-0.2643,-0.2641,-0.2622,-0.2616,-0.2636,-0.2595,-0.259,-0.2587,-0.2613,-0.2566,-0.2565,-0.2579,-0.2581,-0.2582,-0.2664,0,0,0,0,0,0,-0.2587,-0.2597,-0.2608,-0.2623,-0.263,-0.2677,-0.2646,-0.2644,-0.265,-0.2646,-0.262,-0.2614,-0.2594,-0.2589,-0.2586,-0.2611,-0.2564,-0.2578,-0.258,-0.2582,-0.266,-0.2668,-0.2675,0,0,0,0,0,-0.2584,-0.2607,-0.2608,-0.2616,-0.2646,-0.2679,-0.268,-0.2672,-0.2651,-0.2663,-0.2639,-0.2615,-0.2599,-0.2589,-0.2585,-0.2611,-0.2577,-0.2579,-0.2581,-0.2656,-0.2666,-0.2675,0,0,0,0,0,0,-0.2568,-0.2607,-0.2608,-0.264,-0.2663,-0.2675,-0.2683,-0.2678,-0.2669,-0.2658,-0.2628,-0.2622,-0.263,-0.2609,-0.2599,-0.262,-0.2584,-0.2586,-0.2643,-0.2652,-0.2659,-0.2661,-0.2563,0,0,0,0,0,-0.2574,-0.26,-0.2632,-0.2656,-0.2671,-0.2676,-0.2685,-0.2685,-0.2684,-0.2679,-0.2662,-0.2643,-0.2639,-0.2635,-0.2625,-0.2638,-0.2627,-0.2652,-0.2659,-0.2666,-0.2664,-0.2669,-0.2677,-0.259,-0.259,-0.259,0,0,-0.2571,-0.2597,-0.261,-0.2654,-0.2666,-0.2701,-0.2678,-0.2701,-0.2723,-0.2675,-0.2687,-0.2668,-0.2647,-0.2662,-0.2664,-0.2647,-0.2691,-0.2669,-0.2675,-0.2669,-0.2673,-0.2681,-0.2689,-0.2592,-0.2592,-0.2591,0,0,-0.2589,-0.2608,-0.2639,-0.2668,-0.2703,-0.2714,-0.2725,-0.2744,-0.2745,-0.2762,-0.2732,-0.2728,-0.2721,-0.2715,-0.2709,-0.2753,-0.2729,-0.2751,-0.2793,-0.2799,-0.2806,-0.2812,-0.2835,-0.2842,-0.2756,-0.2757,-0.2757,0,-0.2582,-0.263,-0.2651,-0.2694,-0.2719,-0.2725,-0.2764,-0.2777,-0.2789,-0.2797,-0.2775,-0.2769,-0.2748,-0.277,-0.2781,-0.2771,-0.2773,-0.2762,-0.2809,-0.2815,-0.282,-0.2841,-0.2848,-0.2761,-0.276,-0.276,-0.276,0,-0.2626,-0.2667,-0.269,-0.2747,-0.2777,-0.2812,-0.2844,-0.2863,-0.286,-0.2867,-0.2883,-0.2857,-0.2849,-0.2851,-0.2826,-0.2857,-0.2848,-0.2819,-0.2788,-0.2834,-0.2854,-0.286,-0.2767,-0.2765,-0.2764,-0.2763,0,0,-0.26,-0.2701,-0.2707,-0.2743,-0.2808,-0.2835,-0.2886,-0.293,-0.2957,-0.2958,-0.2989,-0.2975,-0.295,-0.2941,-0.2916,-0.2921,-0.2961,-0.2886,-0.2884,-0.2913,-0.299,-0.3016,-0.3025,-0.294,-0.2941,-0.2942,-0.3,0,-0.2623,-0.2709,-0.2755,-0.2826,-0.287,-0.2908,-0.2958,-0.2996,-0.3014,-0.3046,-0.3031,-0.304,-0.299,-0.2984,-0.2984,-0.2961,-0.2976,-0.2949,-0.2937,-0.2938,-0.2958,-0.3032,-0.3022,-0.3076,-0.3006,-0.3007,-0.3007,0,-0.2643,-0.2702,-0.2778,-0.2874,-0.2896,-0.2935,-0.3005,-0.3049,-0.3103,-0.3119,-0.3127,-0.3114,-0.312,-0.3067,-0.3062,-0.3046,-0.3024,-0.3008,-0.3009,-0.3004,-0.2974,-0.3013,-0.3088,-0.3081,-0.3016,-0.3015,-0.3015,0,-0.2601,-0.2711,-0.2768,-0.2801,-0.2912,-0.2943,-0.2989,-0.3056,-0.3097,-0.3149,-0.318,-0.3186,-0.3185,-0.316,-0.3122,-0.3092,-0.3127,-0.3079,-0.309,-0.3092,-0.3066,-0.3064,-0.3132,-0.3084,-0.3083,-0.3083,-0.3083,0,-0.2604,-0.2649,-0.2749,-0.2781,-0.2842,-0.292,-0.2979,-0.3033,-0.3113,-0.317,-0.3192,-0.3234,-0.3203,-0.3217,-0.3171,-0.3166,-0.3164,-0.3118,-0.3114,-0.3097,-0.3098,-0.3073,-0.3057,-0.3086,-0.3085,-0.3085,-0.3084,0,-0.2548,-0.2623,-0.2686,-0.2794,-0.2823,-0.2854,-0.296,-0.3007,-0.3092,-0.3169,-0.3187,-0.3268,-0.33,-0.3288,-0.3271,-0.3234,-0.3197,-0.3214,-0.3211,-0.3206,-0.3199,-0.3187,-0.3196,-0.3114,-0.3241,-0.3242,-0.3243,0,-0.2529,-0.2556,-0.2659,-0.2685,-0.2728,-0.2792,-0.2843,-0.2962,-0.3021,-0.3188,-0.3221,-0.3305,-0.337,-0.3392,-0.3362,-0.3342,-0.3248,-0.3292,-0.3225,-0.3226,-0.3209,-0.3153,-0.3076,-0.3231,-0.3232,-0.3233,-0.3233,0,-0.2468,-0.2497,-0.2541,-0.2605,-0.2654,-0.2719,-0.2802,-0.2859,-0.3016,-0.3121,-0.3267,-0.3348,-0.3438,-0.3459,-0.345,-0.3396,-0.3253,-0.3304,-0.3297,-0.3215,-0.3164,-0.3074,-0.3177,-0.3238,-0.3238,-0.3237,-0.3237,-0.3237,-0.2388,-0.2394,-0.2446,-0.2497,-0.2554,-0.2615,-0.2631,-0.2778,-0.2894,-0.3059,-0.3233,-0.3399,-0.3504,-0.3518,-0.3468,-0.3404,-0.3316,-0.3308,-0.3299,-0.3246,-0.3154,-0.3289,-0.3346,-0.3346,-0.3346,-0.3346,-0.3346,0,-0.2281,-0.23,-0.2337,-0.239,-0.2402,-0.2477,-0.2574,-0.2583,-0.27,-0.2975,-0.3144,-0.3462,-0.3523,-0.3566,-0.357,-0.3449,-0.33,-0.333,-0.3239,-0.3157,-0.3287,-0.3274,-0.3328,-0.3328,-0.3328,-0.3328,-0.3328,-0.3328,-0.2218,-0.2206,-0.2233,-0.2211,-0.2241,-0.2215,-0.2236,-0.2315,-0.2467,-0.2754,-0.3054,-0.3353,-0.3428,-0.3768,-0.3666,-0.3497,-0.3325,-0.3256,-0.317,-0.3285,-0.3281,-0.3278,-0.3263,-0.3314,-0.3314,-0.298,-0.2978,-0.2977]},{"header":{"parameterUnit":"m.s-1","parameterCategory":2,"la1":30.2991,"la2":30.254,"lo1":-89.0895,"lo2":-89.0444,"dy":0.0017,"dx":0.0017,"nx":28,"ny":28,"refTime":"2023-11-14T09:00:00:Z","depth":"0","parameterNumber":3,"parameterNumberName":"V-component_of_CURRENTS"},"data":[0,0,0,0,0,0,0,0,0,0,0,0,0,0,0,0,0,0,0,0,0,0,0,0,0,0,0,0,0,0,0,0,0,0,0,0,0,0,0,0,0,0,0,0,0,0,0,0,0,0,0,0,0,0,0,0,0,0,-0.0238,-0.0237,0,-0.0141,-0.0139,-0.0138,-0.008,-0.008,-0.008,-0.008,0.0032,0.0034,0.0037,0,0,0,0,0,0,0,0,0,0,0,0,0,-0.0317,-0.0316,-0.0238,-0.0237,-0.0236,-0.0141,-0.0139,-0.0138,-0.008,-0.008,-0.008,-0.008,0.0031,0.0034,0.0037,0,0,0,0,0,0,0,0,0,0,0,0,0,-0.0257,-0.0316,-0.0239,-0.0196,-0.0192,-0.0141,-0.0139,-0.0138,-0.0081,-0.008,-0.008,-0.008,0.003,0.0034,0.0038,0.0058,0,0,0.0051,0.0052,0,0,0,0,0,0,0,0,-0.0261,-0.0254,-0.0204,-0.0199,-0.0194,-0.0123,-0.0126,-0.0072,-0.0081,-0.0122,-0.008,-0.008,-0.002,-0.0011,0.0007,0.0064,0.0068,0.0051,0.0054,0.0055,0.0057,0,0,0,0,0,0,0,-0.0265,-0.0258,-0.0199,-0.0203,-0.0197,-0.0163,-0.0154,-0.0115,-0.0073,-0.0118,-0.0114,-0.0105,-0.0017,0.0003,0.001,0.007,0.0051,0.0055,0.0057,0.0059,0.016,0.016,0,0,0,0,0,0,-0.0282,-0.0262,-0.0202,-0.0196,-0.0228,-0.0162,-0.0152,-0.0145,-0.0073,-0.0062,-0.0105,-0.0102,-0.0004,0.0005,0.0015,0.005,0.0055,0.0059,0.0062,0.016,0.016,0.016,0,0,0,0,0,0,-0.0284,-0.0278,-0.0206,-0.0227,-0.0216,-0.0161,-0.0154,-0.0144,-0.0124,-0.0063,-0.0052,-0.0096,-0.0004,0.0009,0.0052,0.0054,0.0061,0.0065,0.016,0.016,0.016,0.0116,0,0,0,0,0,0,-0.0287,-0.0279,-0.0283,-0.0229,-0.0215,-0.0182,-0.0154,-0.0142,-0.0119,-0.0115,-0.0052,-0.0041,-0.0002,0.0045,0.0056,0.006,0.0068,0.016,0.016,0.016,0.0118,0.0115,0.0113,0,0,0,0,0,-0.029,-0.03,-0.0284,-0.0277,-0.0222,-0.0183,-0.0173,-0.0132,-0.0119,-0.0113,-0.0067,-0.0043,0.0055,0.0049,0.0061,0.0067,0.0159,0.016,0.016,0.0119,0.0116,0.0113,0,0,0,0,0,0,-0.0338,-0.0293,-0.0275,-0.0271,-0.0232,-0.0173,-0.0168,-0.0138,-0.0096,-0.0094,-0.0037,-0.0023,0.0014,0.0046,0.0038,0.0097,0.011,0.0112,0.0074,0.0071,0.0069,0.0052,0.0072,0,0,0,0,0,-0.0351,-0.0346,-0.0294,-0.0292,-0.0276,-0.0223,-0.0204,-0.0175,-0.013,-0.0112,-0.0064,-0.0017,0.0026,0.0052,0.0091,0.0126,0.0162,0.0137,0.0134,0.0132,0.0127,0.0184,0.0186,0.0162,0.0162,0.0162,0,0,-0.0371,-0.0345,-0.0342,-0.0302,-0.027,-0.0253,-0.0211,-0.0187,-0.0168,-0.0106,-0.007,-0.0025,0.0032,0.0071,0.009,0.0099,0.0159,0.0133,0.013,0.0126,0.0184,0.0187,0.0189,0.0162,0.0162,0.0162,0,0,-0.0409,-0.0383,-0.0392,-0.0362,-0.0321,-0.0283,-0.028,-0.0221,-0.0191,-0.015,-0.0101,-0.0052,0.0009,0.006,0.009,0.0099,0.0141,0.0106,0.0087,0.0142,0.0145,0.0147,0.0199,0.0206,0.0109,0.0109,0.0109,0,-0.0437,-0.0437,-0.0389,-0.0385,-0.0368,-0.0301,-0.0302,-0.0259,-0.0192,-0.0165,-0.0149,-0.0042,0.0006,0.0067,0.007,0.0095,0.0127,0.0093,0.0139,0.0142,0.0146,0.0198,0.0206,0.0107,0.0107,0.0108,0.0108,0,-0.0477,-0.0474,-0.0477,-0.0449,-0.0421,-0.0412,-0.0346,-0.0313,-0.027,-0.0219,-0.0153,-0.0078,-0.0013,0.0011,0.0044,0.0093,0.011,0.0125,0.0143,0.0145,0.02,0.021,0.0104,0.0105,0.0106,0.0106,0,0,-0.0546,-0.0514,-0.0516,-0.0516,-0.0455,-0.0441,-0.0401,-0.0345,-0.032,-0.0243,-0.0202,-0.0115,-0.0066,-0.0029,0.0029,0.008,0.0137,0.0105,0.0109,0.015,0.0254,0.0326,0.0344,0.0157,0.0158,0.016,0.0284,0,-0.0595,-0.0621,-0.0575,-0.0585,-0.0593,-0.0513,-0.0483,-0.0419,-0.0351,-0.029,-0.0191,-0.0134,-0.0081,-0.0052,0.0011,0.0108,0.016,0.0101,0.0251,0.0255,0.0315,0.0357,0.0427,0.0549,0.0294,0.0296,0.0297,0,-0.0648,-0.066,-0.0689,-0.0662,-0.0656,-0.0641,-0.058,-0.0543,-0.0431,-0.0375,-0.0284,-0.0201,-0.0094,-0.0066,0.0108,0.0067,0.0149,0.0221,0.0228,0.0316,0.0346,0.0506,0.0577,0.0794,0.0313,0.0311,0.031,0,-0.0738,-0.0734,-0.0766,-0.0757,-0.0714,-0.0703,-0.0672,-0.0576,-0.0543,-0.0427,-0.0387,-0.0242,-0.017,-0.0041,0.0131,0.0114,0.0316,0.0316,0.0459,0.0464,0.0565,0.0578,0.086,0.0419,0.0419,0.0418,0.0418,0,-0.0811,-0.0833,-0.0814,-0.0833,-0.0865,-0.0792,-0.0788,-0.073,-0.0636,-0.0599,-0.0445,-0.0379,-0.0164,-0.0013,0.0124,0.0344,0.0321,0.0469,0.0509,0.0553,0.0562,0.0788,0.0867,0.0423,0.0422,0.0421,0.042,0,-0.09,-0.0888,-0.0925,-0.0909,-0.0912,-0.0933,-0.0887,-0.0875,-0.077,-0.0714,-0.0681,-0.0473,-0.0254,-0.0026,0.0207,0.0343,0.0671,0.0604,0.0644,0.0688,0.1018,0.1089,0.1385,0.1463,0.0786,0.0788,0.0791,0,-0.0949,-0.0981,-0.1007,-0.1044,-0.1041,-0.1054,-0.1063,-0.0968,-0.0945,-0.0772,-0.0758,-0.0518,-0.0337,0.0069,0.0375,0.0674,0.0798,0.088,0.0865,0.1072,0.118,0.1223,0.1268,0.0981,0.0985,0.0988,0.099,0,-0.1041,-0.1045,-0.108,-0.1171,-0.1203,-0.1229,-0.1228,-0.1228,-0.1101,-0.1022,-0.0874,-0.0705,-0.0241,0.018,0.0607,0.077,0.1058,0.0948,0.1164,0.1369,0.1433,0.1515,0.0856,0.1016,0.1014,0.1012,0.1011,0.1009,-0.1101,-0.1155,-0.1212,-0.1294,-0.1343,-0.1395,-0.143,-0.1395,-0.1356,-0.1219,-0.1,-0.0704,0.0008,0.0649,0.0863,0.1386,0.1285,0.1506,0.1577,0.1603,0.169,0.1088,0.129,0.1289,0.1288,0.1288,0.1287,0,-0.1178,-0.1241,-0.1333,-0.1425,-0.1509,-0.1498,-0.1535,-0.1551,-0.1529,-0.1311,-0.1116,-0.032,0.0363,0.0991,0.178,0.2021,0.2028,0.212,0.221,0.2221,0.1713,0.1734,0.204,0.204,0.204,0.204,0.2039,0.2039,-0.1219,-0.1329,-0.1385,-0.1556,-0.1618,-0.1717,-0.1745,-0.1747,-0.1627,-0.1287,-0.0852,-0.0464,0.0558,0.1956,0.2661,0.2662,0.2827,0.2804,0.2865,0.2546,0.2494,0.2444,0.2488,0.2947,0.2948,0.3348,0.3353,0.3356]}],[{"header":{"parameterUnit":"m.s-1","parameterCategory":2,"la1":30.2991,"la2":30.254,"lo1":-89.0895,"lo2":-89.0444,"dy":0.0017,"dx":0.0017,"nx":28,"ny":28,"refTime":"2023-11-14T09:00:00:Z","depth":"2","parameterNumber":2,"parameterNumberName":"U-component_of_CURRENTS"},"data":[0,0,0,0,0,0,0,0,0,0,0,0,0,0,0,0,0,0,0,0,0,0,0,0,0,0,0,0,0,0,0,0,0,0,0,0,0,0,0,0,0,0,0,0,0,0,0,0,0,0,0,0,0,0,0,0,0,0,-0.2561,-0.2562,0,-0.2573,-0.2573,-0.2573,-0.254,-0.2539,-0.2538,-0.2538,-0.249,-0.2489,-0.2488,0,0,0,0,0,0,0,0,0,0,0,0,0,-0.2471,-0.2473,-0.2561,-0.2562,-0.2562,-0.2573,-0.2573,-0.2572,-0.254,-0.2539,-0.2538,-0.2538,-0.249,-0.2489,-0.2488,0,0,0,0,0,0,0,0,0,0,0,0,0,-0.2495,-0.2473,-0.2561,-0.255,-0.255,-0.2573,-0.2573,-0.2572,-0.254,-0.2539,-0.2538,-0.2537,-0.249,-0.2489,-0.2488,-0.2501,0,0,-0.2485,-0.2485,0,0,0,0,0,0,0,0,-0.2494,-0.2498,-0.2551,-0.2551,-0.2551,-0.2558,-0.2524,-0.2547,-0.254,-0.2539,-0.2538,-0.2537,-0.251,-0.2508,-0.2507,-0.2499,-0.2496,-0.2485,-0.2484,-0.2484,-0.2484,0,0,0,0,0,0,0,-0.2492,-0.2497,-0.2561,-0.2552,-0.2552,-0.2532,-0.2534,-0.2528,-0.2526,-0.2539,-0.2538,-0.2546,-0.2509,-0.2508,-0.2505,-0.2496,-0.2485,-0.2484,-0.2483,-0.2483,-0.2499,-0.25,0,0,0,0,0,0,-0.2503,-0.2496,-0.2561,-0.2562,-0.2524,-0.2535,-0.2537,-0.2553,-0.2527,-0.2524,-0.2547,-0.2545,-0.251,-0.2507,-0.2503,-0.2533,-0.2484,-0.2483,-0.2482,-0.2498,-0.2499,-0.25,0,0,0,0,0,0,-0.2501,-0.2509,-0.2561,-0.2532,-0.2538,-0.2538,-0.2556,-0.2554,-0.2553,-0.2534,-0.2529,-0.2549,-0.2509,-0.2505,-0.2503,-0.253,-0.2482,-0.2482,-0.2497,-0.2498,-0.25,-0.2581,0,0,0,0,0,0,-0.2499,-0.2508,-0.2519,-0.2533,-0.254,-0.2586,-0.2557,-0.2555,-0.2562,-0.2559,-0.2535,-0.2529,-0.2508,-0.2505,-0.2502,-0.2528,-0.2481,-0.2495,-0.2497,-0.2499,-0.2577,-0.2585,-0.2592,0,0,0,0,0,-0.2496,-0.2518,-0.2519,-0.2527,-0.2556,-0.2588,-0.259,-0.2582,-0.2563,-0.2575,-0.2553,-0.253,-0.2515,-0.2505,-0.2502,-0.2527,-0.2494,-0.2497,-0.2499,-0.2574,-0.2584,-0.2592,0,0,0,0,0,0,-0.2481,-0.2518,-0.2519,-0.2551,-0.2573,-0.2584,-0.2594,-0.2589,-0.2582,-0.2572,-0.2543,-0.2537,-0.2546,-0.2525,-0.2515,-0.2537,-0.2501,-0.2503,-0.256,-0.2569,-0.2576,-0.2578,-0.248,0,0,0,0,0,-0.2487,-0.2512,-0.2543,-0.2567,-0.2581,-0.2587,-0.2596,-0.2597,-0.2596,-0.2592,-0.2576,-0.2558,-0.2554,-0.2551,-0.2542,-0.2556,-0.2544,-0.2569,-0.2577,-0.2583,-0.2582,-0.2587,-0.2595,-0.2508,-0.2508,-0.2508,0,0,-0.2485,-0.251,-0.2522,-0.2565,-0.2577,-0.2611,-0.2589,-0.2613,-0.2635,-0.2588,-0.2602,-0.2584,-0.2563,-0.2578,-0.2581,-0.2564,-0.2608,-0.2586,-0.2592,-0.2587,-0.259,-0.2599,-0.2606,-0.2509,-0.2509,-0.2509,0,0,-0.2503,-0.2522,-0.2552,-0.258,-0.2615,-0.2626,-0.2637,-0.2656,-0.2658,-0.2676,-0.2647,-0.2644,-0.2637,-0.2631,-0.2626,-0.267,-0.2647,-0.2668,-0.2711,-0.2717,-0.2724,-0.273,-0.2753,-0.276,-0.2674,-0.2674,-0.2674,0,-0.2497,-0.2544,-0.2564,-0.2605,-0.263,-0.2637,-0.2676,-0.2689,-0.2702,-0.271,-0.2689,-0.2685,-0.2664,-0.2686,-0.2698,-0.2688,-0.269,-0.268,-0.2727,-0.2733,-0.2738,-0.2759,-0.2766,-0.2678,-0.2678,-0.2677,-0.2677,0,-0.254,-0.2581,-0.2603,-0.2658,-0.2688,-0.2723,-0.2754,-0.2774,-0.2773,-0.278,-0.2797,-0.2772,-0.2766,-0.2768,-0.2744,-0.2774,-0.2766,-0.2737,-0.2706,-0.2752,-0.2771,-0.2778,-0.2684,-0.2683,-0.2682,-0.2681,0,0,-0.2516,-0.2614,-0.262,-0.2656,-0.2719,-0.2746,-0.2796,-0.284,-0.2868,-0.2871,-0.2902,-0.289,-0.2866,-0.2857,-0.2833,-0.2838,-0.2879,-0.2804,-0.2803,-0.2831,-0.2909,-0.2932,-0.2941,-0.2858,-0.2859,-0.286,-0.2919,0,-0.254,-0.2623,-0.2668,-0.2737,-0.2781,-0.2818,-0.2868,-0.2906,-0.2925,-0.2958,-0.2943,-0.2953,-0.2905,-0.2901,-0.2901,-0.2879,-0.2894,-0.2866,-0.2856,-0.2856,-0.2874,-0.2948,-0.2671,-0.2703,-0.2924,-0.2925,-0.2926,0,-0.2559,-0.2617,-0.2691,-0.2785,-0.2807,-0.2846,-0.2915,-0.2959,-0.3013,-0.303,-0.304,-0.3028,-0.3035,-0.2983,-0.2979,-0.2964,-0.2942,-0.2927,-0.2928,-0.2921,-0.289,-0.2687,-0.2705,-0.2935,-0.2935,-0.2934,-0.2933,0,-0.252,-0.2627,-0.2682,-0.2715,-0.2823,-0.2854,-0.29,-0.2967,-0.3008,-0.3062,-0.3092,-0.31,-0.31,-0.3076,-0.304,-0.301,-0.3045,-0.2997,-0.3007,-0.3009,-0.2756,-0.2735,-0.3003,-0.3003,-0.3003,-0.3003,-0.3002,0,-0.2523,-0.2567,-0.2665,-0.2697,-0.2757,-0.2834,-0.2893,-0.2947,-0.3026,-0.3083,-0.3106,-0.3147,-0.3119,-0.3133,-0.3087,-0.3082,-0.3082,-0.3035,-0.303,-0.2782,-0.2763,-0.2936,-0.2927,-0.3005,-0.3004,-0.3004,-0.3003,0,-0.2469,-0.2542,-0.2605,-0.2711,-0.2739,-0.2771,-0.2876,-0.2922,-0.3007,-0.3083,-0.3102,-0.3182,-0.3214,-0.3203,-0.3187,-0.3149,-0.3135,-0.313,-0.2861,-0.2826,-0.3083,-0.3078,-0.3151,-0.3153,-0.3154,-0.3155,-0.3156,0,-0.2451,-0.2477,-0.2579,-0.2605,-0.2647,-0.2712,-0.2762,-0.288,-0.2937,-0.3101,-0.3134,-0.3218,-0.3272,-0.3294,-0.3208,-0.3172,-0.3195,-0.2927,-0.2824,-0.3114,-0.3101,-0.3094,-0.3088,-0.2517,-0.2513,-0.2509,-0.2506,0,-0.2391,-0.2421,-0.2464,-0.2527,-0.2576,-0.2639,-0.2721,-0.2777,-0.293,-0.3025,-0.3168,-0.3239,-0.3275,-0.3132,-0.31,-0.302,-0.2913,-0.286,-0.3202,-0.2554,-0.2529,-0.2513,-0.2524,-0.2474,-0.2477,-0.248,-0.2481,-0.2483,-0.2314,-0.232,-0.2371,-0.2421,-0.2478,-0.2536,-0.2551,-0.266,-0.276,-0.2841,-0.305,-0.3053,-0.3039,-0.2862,-0.276,-0.2641,-0.2823,-0.2657,-0.2661,-0.2671,-0.2618,-0.26,-0.2549,-0.2552,-0.2555,-0.2558,-0.256,0,-0.2195,-0.2228,-0.2264,-0.2315,-0.231,-0.2401,-0.2494,-0.2443,-0.25,-0.2625,-0.2716,-0.2508,-0.2472,-0.2449,-0.2238,-0.2248,-0.2133,-0.2144,-0.1959,-0.1995,-0.2025,-0.1932,-0.1685,-0.1682,-0.168,-0.1678,0,0,-0.2129,-0.2109,-0.2135,-0.2104,-0.2147,-0.2087,-0.2105,-0.2065,-0.208,-0.2043,-0.2061,-0.2282,-0.2382,-0.2013,-0.1949,-0.1787,-0.1853,-0.1697,-0.2395,-0.2209,-0.2236,-0.2321,-0.2221,0,0,0,0,0]},{"header":{"parameterUnit":"m.s-1","parameterCategory":2,"la1":30.2991,"la2":30.254,"lo1":-89.0895,"lo2":-89.0444,"dy":0.0017,"dx":0.0017,"nx":28,"ny":28,"refTime":"2023-11-14T09:00:00:Z","depth":"2","parameterNumber":3,"parameterNumberName":"V-component_of_CURRENTS"},"data":[0,0,0,0,0,0,0,0,0,0,0,0,0,0,0,0,0,0,0,0,0,0,0,0,0,0,0,0,0,0,0,0,0,0,0,0,0,0,0,0,0,0,0,0,0,0,0,0,0,0,0,0,0,0,0,0,0,0,-0.0212,-0.0211,0,-0.0116,-0.0115,-0.0114,-0.0058,-0.0057,-0.0057,-0.0057,0.0052,0.0055,0.0058,0,0,0,0,0,0,0,0,0,0,0,0,0,-0.0289,-0.0288,-0.0212,-0.0211,-0.021,-0.0116,-0.0115,-0.0113,-0.0058,-0.0057,-0.0057,-0.0057,0.0052,0.0055,0.0058,0,0,0,0,0,0,0,0,0,0,0,0,0,-0.023,-0.0288,-0.0212,-0.0171,-0.0167,-0.0117,-0.0115,-0.0113,-0.0058,-0.0057,-0.0057,-0.0057,0.005,0.0054,0.0059,0.008,0,0,0.0071,0.0073,0,0,0,0,0,0,0,0,-0.0234,-0.0227,-0.0178,-0.0174,-0.0169,-0.0099,-0.0102,-0.0048,-0.0058,-0.0098,-0.0057,-0.0057,0.0002,0.001,0.0029,0.0085,0.0089,0.0072,0.0074,0.0076,0.0077,0,0,0,0,0,0,0,-0.0238,-0.0231,-0.0173,-0.0177,-0.0171,-0.0138,-0.013,-0.0091,-0.005,-0.0095,-0.0091,-0.0081,0.0005,0.0025,0.0032,0.0091,0.0072,0.0075,0.0078,0.0079,0.018,0.018,0,0,0,0,0,0,-0.0255,-0.0235,-0.0176,-0.017,-0.0202,-0.0137,-0.0128,-0.0121,-0.005,-0.0039,-0.0082,-0.0079,0.0018,0.0027,0.0036,0.0071,0.0076,0.008,0.0082,0.018,0.018,0.018,0,0,0,0,0,0,-0.0257,-0.025,-0.018,-0.0201,-0.019,-0.0137,-0.0129,-0.0119,-0.01,-0.004,-0.0029,-0.0073,0.0018,0.003,0.0073,0.0075,0.0082,0.0085,0.018,0.018,0.018,0.0137,0,0,0,0,0,0,-0.0259,-0.0252,-0.0256,-0.0202,-0.0189,-0.0157,-0.0129,-0.0118,-0.0095,-0.0091,-0.0029,-0.0019,0.0019,0.0066,0.0077,0.0081,0.0089,0.0179,0.018,0.018,0.0138,0.0136,0.0134,0,0,0,0,0,-0.0263,-0.0272,-0.0257,-0.025,-0.0196,-0.0157,-0.0148,-0.0108,-0.0096,-0.009,-0.0044,-0.0021,0.0076,0.007,0.0082,0.0088,0.0179,0.018,0.018,0.0139,0.0136,0.0134,0,0,0,0,0,0,-0.031,-0.0266,-0.0248,-0.0244,-0.0206,-0.0148,-0.0143,-0.0114,-0.0073,-0.0071,-0.0015,-0.0001,0.0036,0.0067,0.0059,0.0117,0.013,0.0133,0.0094,0.0092,0.009,0.0073,0.0092,0,0,0,0,0,-0.0323,-0.0318,-0.0267,-0.0265,-0.025,-0.0197,-0.0179,-0.015,-0.0106,-0.0088,-0.0042,0.0005,0.0047,0.0073,0.0112,0.0146,0.0182,0.0157,0.0155,0.0153,0.0147,0.0204,0.0206,0.0181,0.0181,0.0181,0,0,-0.0342,-0.0317,-0.0315,-0.0275,-0.0244,-0.0227,-0.0185,-0.0163,-0.0143,-0.0083,-0.0048,-0.0003,0.0053,0.0092,0.0111,0.012,0.0179,0.0153,0.0151,0.0147,0.0205,0.0207,0.0209,0.0182,0.0182,0.0182,0,0,-0.0381,-0.0355,-0.0364,-0.0335,-0.0294,-0.0257,-0.0253,-0.0196,-0.0166,-0.0126,-0.0078,-0.0029,0.0031,0.0081,0.0111,0.0121,0.0162,0.0127,0.0109,0.0164,0.0166,0.0169,0.0219,0.0227,0.0131,0.013,0.013,0,-0.0408,-0.0408,-0.0361,-0.0358,-0.034,-0.0275,-0.0276,-0.0233,-0.0167,-0.014,-0.0125,-0.0019,0.0028,0.0089,0.0091,0.0116,0.0148,0.0114,0.0161,0.0164,0.0167,0.0218,0.0227,0.0128,0.0129,0.0129,0.0129,0,-0.0447,-0.0445,-0.0448,-0.0421,-0.0393,-0.0384,-0.0319,-0.0286,-0.0244,-0.0193,-0.0128,-0.0054,0.001,0.0034,0.0066,0.0116,0.0131,0.0147,0.0165,0.0167,0.0221,0.0231,0.0126,0.0126,0.0127,0.0127,0,0,-0.0517,-0.0485,-0.0486,-0.0487,-0.0427,-0.0413,-0.0373,-0.0318,-0.0293,-0.0217,-0.0176,-0.009,-0.0042,-0.0005,0.0052,0.0103,0.0159,0.0127,0.0131,0.0172,0.0276,0.0344,0.0361,0.018,0.0181,0.0182,0.0305,0,-0.0565,-0.0591,-0.0545,-0.0555,-0.0563,-0.0484,-0.0454,-0.039,-0.0323,-0.0264,-0.0165,-0.0109,-0.0057,-0.0028,0.0035,0.013,0.0182,0.0124,0.0272,0.0276,0.0333,0.0374,0.0298,0.0406,0.0314,0.0316,0.0317,0,-0.0618,-0.063,-0.0659,-0.0632,-0.0625,-0.0611,-0.0551,-0.0514,-0.0402,-0.0348,-0.0257,-0.0175,-0.0069,-0.0041,0.0132,0.009,0.0171,0.0243,0.025,0.0334,0.0363,0.039,0.0428,0.0334,0.0333,0.0332,0.0331,0,-0.0708,-0.0704,-0.0735,-0.0726,-0.0684,-0.0672,-0.0642,-0.0547,-0.0514,-0.0399,-0.036,-0.0215,-0.0145,-0.0016,0.0153,0.0137,0.0336,0.0337,0.0476,0.0481,0.0458,0.0459,0.044,0.044,0.0439,0.0439,0.0439,0,-0.0781,-0.0802,-0.0783,-0.0802,-0.0834,-0.0762,-0.0757,-0.07,-0.0607,-0.057,-0.0418,-0.0352,-0.0139,0.0011,0.0147,0.0362,0.0341,0.0485,0.0525,0.0442,0.0441,0.0406,0.0401,0.0444,0.0443,0.0442,0.0441,0,-0.087,-0.0857,-0.0894,-0.0878,-0.088,-0.0902,-0.0856,-0.0845,-0.074,-0.0685,-0.0653,-0.0445,-0.023,-0.0005,0.0226,0.036,0.0548,0.0617,0.0512,0.0539,0.0651,0.0642,0.0787,0.0791,0.0794,0.0796,0.0799,0,-0.0918,-0.095,-0.0976,-0.1012,-0.1009,-0.1022,-0.1032,-0.0937,-0.0915,-0.0743,-0.0729,-0.0492,-0.0316,0.0084,0.0357,0.0643,0.0633,0.0735,0.0701,0.0667,0.0691,0.0677,0.0664,0.0647,0.0647,0.0648,0.0648,0,-0.1009,-0.1014,-0.1049,-0.1139,-0.1171,-0.1197,-0.1195,-0.1195,-0.1069,-0.0992,-0.0845,-0.0681,-0.0254,0.0077,0.0485,0.0628,0.0693,0.0759,0.0758,0.058,0.0548,0.0567,0.0556,0.0654,0.0653,0.0653,0.0652,0.0652,-0.107,-0.1124,-0.118,-0.1261,-0.131,-0.1361,-0.1396,-0.1351,-0.1311,-0.117,-0.0979,-0.0713,-0.0317,0.0242,0.0537,0.0796,0.079,0.0829,0.0821,0.0814,0.0785,0.0762,0.0902,0.0902,0.0903,0.0904,0.0904,0,-0.1139,-0.1209,-0.13,-0.1391,-0.1464,-0.1464,-0.15,-0.1488,-0.1452,-0.1275,-0.1094,-0.0673,-0.0238,0.0168,0.0586,0.0862,0.0807,0.0892,0.0762,0.0756,0.075,0.0713,0.0814,0.0814,0.0815,0.0816,0,0,-0.1178,-0.1283,-0.1337,-0.15,-0.157,-0.1646,-0.1674,-0.163,-0.1525,-0.1362,-0.1156,-0.0811,-0.028,0.001,0.037,0.0593,0.058,0.0595,0.0633,0.0425,0.0416,0.0678,0.0611,0,0,0,0,0]}],[{"header":{"parameterUnit":"m.s-1","parameterCategory":2,"la1":30.2991,"la2":30.254,"lo1":-89.0895,"lo2":-89.0444,"dy":0.0017,"dx":0.0017,"nx":28,"ny":28,"refTime":"2023-11-14T09:00:00:Z","depth":"4","parameterNumber":2,"parameterNumberName":"U-component_of_CURRENTS"},"data":[0,0,0,0,0,0,0,0,0,0,0,0,0,0,0,0,0,0,0,0,0,0,0,0,0,0,0,0,0,0,0,0,0,0,0,0,0,0,0,0,0,0,0,0,0,0,0,0,0,0,0,0,0,0,0,0,0,0,-0.1575,-0.1576,0,-0.1634,-0.1635,-0.1635,-0.1672,-0.1672,-0.1673,-0.1673,-0.172,-0.172,-0.1721,0,0,0,0,0,0,0,0,0,0,0,0,0,-0.1479,-0.148,-0.1575,-0.1576,-0.1577,-0.1634,-0.1635,-0.1635,-0.1672,-0.1672,-0.1673,-0.1673,-0.1719,-0.172,-0.1721,0,0,0,0,0,0,0,0,0,0,0,0,0,-0.1525,-0.148,-0.1575,-0.1604,-0.1607,-0.1634,-0.1635,-0.1635,-0.1672,-0.1672,-0.1673,-0.1674,-0.1719,-0.172,-0.1721,-0.1717,0,0,-0.1725,-0.1726,0,0,0,0,0,0,0,0,-0.1523,-0.1528,-0.1599,-0.1602,-0.1606,-0.1648,-0.1618,-0.1663,-0.1672,-0.1645,-0.1673,-0.1674,-0.1695,-0.1699,-0.1706,-0.1719,-0.1721,-0.1725,-0.1726,-0.1727,-0.1727,0,0,0,0,0,0,0,-0.1519,-0.1526,-0.1596,-0.16,-0.1604,-0.1609,-0.1616,-0.1626,-0.1664,-0.1647,-0.1651,-0.166,-0.1697,-0.1704,-0.1707,-0.1722,-0.1725,-0.1727,-0.1727,-0.1728,-0.1812,-0.1814,0,0,0,0,0,0,-0.1517,-0.1523,-0.1594,-0.1598,-0.1567,-0.161,-0.1618,-0.1632,-0.1664,-0.1671,-0.166,-0.1662,-0.1702,-0.1705,-0.1709,-0.1789,-0.1727,-0.1728,-0.1729,-0.1811,-0.1813,-0.1814,0,0,0,0,0,0,-0.1515,-0.1523,-0.1592,-0.1563,-0.1573,-0.1611,-0.1627,-0.1633,-0.1669,-0.1675,-0.168,-0.1693,-0.1702,-0.1707,-0.1747,-0.1788,-0.1729,-0.173,-0.1809,-0.1811,-0.1814,-0.1896,0,0,0,0,0,0,-0.1512,-0.1522,-0.1543,-0.1563,-0.1575,-0.1631,-0.1627,-0.1634,-0.1673,-0.1677,-0.1704,-0.1708,-0.1703,-0.1746,-0.1749,-0.1789,-0.1731,-0.1807,-0.181,-0.1813,-0.1892,-0.1901,-0.1909,0,0,0,0,0,-0.1508,-0.1532,-0.1544,-0.1553,-0.1599,-0.1633,-0.1639,-0.1666,-0.1675,-0.1699,-0.1718,-0.1708,-0.1765,-0.1748,-0.1751,-0.1793,-0.1806,-0.1809,-0.1813,-0.1888,-0.1899,-0.1909,0,0,0,0,0,0,-0.1502,-0.1538,-0.1552,-0.1587,-0.1619,-0.164,-0.1668,-0.1683,-0.1716,-0.1728,-0.1727,-0.1733,-0.1782,-0.1774,-0.1755,-0.1824,-0.1784,-0.1788,-0.184,-0.1851,-0.1859,-0.1859,-0.1732,0,0,0,0,0,-0.151,-0.1539,-0.1571,-0.1603,-0.1621,-0.1649,-0.1671,-0.1692,-0.1718,-0.1735,-0.1755,-0.1773,-0.1793,-0.1812,-0.1825,-0.1864,-0.1852,-0.1892,-0.1901,-0.1908,-0.191,-0.192,-0.193,-0.1825,-0.1825,-0.1825,0,0,-0.1516,-0.1541,-0.1559,-0.1604,-0.163,-0.1669,-0.1665,-0.171,-0.175,-0.1733,-0.1799,-0.1806,-0.1809,-0.1855,-0.1876,-0.1858,-0.1935,-0.1912,-0.1919,-0.1916,-0.1925,-0.1935,-0.1944,-0.1827,-0.1827,-0.1827,0,0,-0.1536,-0.1568,-0.1598,-0.1631,-0.168,-0.1701,-0.1721,-0.1763,-0.1794,-0.1849,-0.1847,-0.1879,-0.1916,-0.1926,-0.1933,-0.1996,-0.1978,-0.2007,-0.2057,-0.2068,-0.2077,-0.2084,-0.2098,-0.2106,-0.2015,-0.2015,-0.2015,0,-0.1544,-0.1586,-0.1612,-0.1652,-0.1688,-0.1719,-0.1764,-0.1799,-0.1853,-0.1882,-0.1883,-0.1943,-0.1947,-0.1994,-0.2019,-0.2017,-0.202,-0.2019,-0.208,-0.2086,-0.2092,-0.2105,-0.2112,-0.2019,-0.2019,-0.2018,-0.2018,0,-0.1577,-0.1627,-0.165,-0.1712,-0.1752,-0.1798,-0.1848,-0.1898,-0.1937,-0.1967,-0.2032,-0.2038,-0.207,-0.2082,-0.2073,-0.2125,-0.2113,-0.2087,-0.2053,-0.2108,-0.2117,-0.2124,-0.2026,-0.2024,-0.2023,-0.2022,0,0,-0.155,-0.1654,-0.1665,-0.1711,-0.1792,-0.1825,-0.1903,-0.1973,-0.2027,-0.2076,-0.2138,-0.2171,-0.2174,-0.2181,-0.2176,-0.219,-0.2241,-0.2166,-0.2165,-0.218,-0.2277,-0.2155,-0.215,-0.223,-0.2231,-0.2232,-0.2272,0,-0.1571,-0.1653,-0.1704,-0.1793,-0.1839,-0.1906,-0.1975,-0.2045,-0.2101,-0.217,-0.2189,-0.224,-0.2213,-0.2235,-0.2248,-0.2241,-0.226,-0.2233,-0.222,-0.222,-0.2104,-0.2153,-0.2236,-0.2276,-0.2278,-0.2279,-0.228,0,-0.1576,-0.1637,-0.1724,-0.1843,-0.1872,-0.1933,-0.2047,-0.2112,-0.2208,-0.2254,-0.2303,-0.2318,-0.2358,-0.232,-0.2339,-0.2327,-0.2313,-0.23,-0.23,-0.2158,-0.2109,-0.2205,-0.229,-0.229,-0.2289,-0.2288,-0.2287,0,-0.1524,-0.1648,-0.1721,-0.1761,-0.1896,-0.1958,-0.2031,-0.2136,-0.2197,-0.2302,-0.235,-0.2396,-0.2423,-0.2415,-0.2393,-0.2376,-0.2404,-0.237,-0.225,-0.2243,-0.2303,-0.2295,-0.2384,-0.2384,-0.2384,-0.2383,-0.2383,0,-0.1506,-0.157,-0.171,-0.1749,-0.1845,-0.1946,-0.2048,-0.2128,-0.2242,-0.2307,-0.2381,-0.242,-0.2448,-0.2464,-0.2431,-0.2359,-0.2434,-0.2265,-0.2243,-0.234,-0.2335,-0.2309,-0.2299,-0.2385,-0.2385,-0.2384,-0.2384,0,-0.1429,-0.1526,-0.1617,-0.1771,-0.1821,-0.1885,-0.2043,-0.2107,-0.223,-0.2315,-0.235,-0.2451,-0.2467,-0.248,-0.2477,-0.2392,-0.2345,-0.2303,-0.2427,-0.2411,-0.217,-0.2165,-0.2168,-0.2164,-0.216,-0.2158,-0.2155,0,-0.1395,-0.1434,-0.16,-0.165,-0.1725,-0.184,-0.1915,-0.2073,-0.2131,-0.2307,-0.2323,-0.2411,-0.2452,-0.2355,-0.2381,-0.2326,-0.2289,-0.226,-0.2191,-0.2169,-0.2148,-0.2148,-0.2148,-0.215,-0.2149,-0.2148,-0.2147,0,-0.1317,-0.1386,-0.1454,-0.1561,-0.1653,-0.1744,-0.1857,-0.1894,-0.2067,-0.2203,-0.2244,-0.2259,-0.2286,-0.2269,-0.2251,-0.2203,-0.2272,-0.2223,-0.2229,-0.2164,-0.2147,-0.213,-0.2133,-0.2135,-0.2137,-0.2138,-0.2139,0,-0.1246,-0.1269,-0.1363,-0.1441,-0.1548,-0.1603,-0.1695,-0.1775,-0.186,-0.2058,-0.2069,-0.2168,-0.2273,-0.2207,-0.2185,-0.2136,-0.2089,-0.2006,-0.2022,-0.2036,-0.1968,-0.1926,-0.1831,0,0,0,0,0,-0.1163,-0.1172,-0.1236,-0.1316,-0.1415,-0.1474,-0.163,-0.1726,-0.1903,-0.1885,-0.1974,-0.1994,-0.1993,-0.204,-0.1955,-0.21,-0.2081,-0.1991,-0.1991,-0.207,-0.2084,-0.2014,0,0,0,0,0,0,-0.1106,-0.1152,-0.1183,-0.1185,-0.1209,-0.1306,-0.1399,-0.153,-0.1532,-0.1716,-0.1719,-0.1858,-0.187,-0.1994,-0.1902,-0.1914,-0.1873,-0.2058,-0.2053,-0.2062,-0.2075,-0.2086,-0.2018,0,0,0,0,0]},{"header":{"parameterUnit":"m.s-1","parameterCategory":2,"la1":30.2991,"la2":30.254,"lo1":-89.0895,"lo2":-89.0444,"dy":0.0017,"dx":0.0017,"nx":28,"ny":28,"refTime":"2023-11-14T09:00:00:Z","depth":"4","parameterNumber":3,"parameterNumberName":"V-component_of_CURRENTS"},"data":[0,0,0,0,0,0,0,0,0,0,0,0,0,0,0,0,0,0,0,0,0,0,0,0,0,0,0,0,0,0,0,0,0,0,0,0,0,0,0,0,0,0,0,0,0,0,0,0,0,0,0,0,0,0,0,0,0,0,-0.0087,-0.0086,0,-0.0029,-0.0028,-0.0028,0.0006,0.0007,0.0007,0.0007,0.0087,0.0089,0.0091,0,0,0,0,0,0,0,0,0,0,0,0,0,-0.0125,-0.0125,-0.0087,-0.0086,-0.0085,-0.0029,-0.0028,-0.0028,0.0006,0.0007,0.0007,0.0007,0.0086,0.0089,0.0091,0,0,0,0,0,0,0,0,0,0,0,0,0,-0.0092,-0.0125,-0.0087,-0.0062,-0.006,-0.0029,-0.0028,-0.0027,0.0006,0.0007,0.0007,0.0007,0.0085,0.0089,0.0092,0.0108,0,0,0.0101,0.0102,0,0,0,0,0,0,0,0,-0.0094,-0.009,-0.0067,-0.0064,-0.0061,-0.0019,-0.0013,0.0019,0.0006,-0.0018,0.0007,0.0007,0.0053,0.0059,0.007,0.0112,0.0116,0.0101,0.0103,0.0105,0.0105,0,0,0,0,0,0,0,-0.0096,-0.0092,-0.0063,-0.0066,-0.0062,-0.004,-0.0035,-0.0006,0.0017,-0.0016,-0.0013,-0.0008,0.0055,0.0067,0.0072,0.0117,0.0101,0.0104,0.0106,0.0107,0.0186,0.0187,0,0,0,0,0,0,-0.0107,-0.0095,-0.0065,-0.0061,-0.0078,-0.004,-0.0034,-0.0032,0.0017,0.0024,-0.0008,-0.0007,0.0062,0.0069,0.0075,0.0103,0.0105,0.0107,0.0109,0.0186,0.0186,0.0187,0,0,0,0,0,0,-0.0108,-0.0105,-0.0067,-0.0077,-0.0071,-0.004,-0.0037,-0.0031,-0.002,0.0022,0.0029,-0.0004,0.0062,0.0071,0.0103,0.0106,0.0109,0.0112,0.0186,0.0186,0.0186,0.0156,0,0,0,0,0,0,-0.011,-0.0106,-0.0111,-0.0078,-0.0071,-0.0055,-0.0037,-0.003,-0.0017,-0.0015,0.0028,0.0036,0.0063,0.0098,0.0106,0.0111,0.0114,0.0185,0.0186,0.0186,0.0156,0.0155,0.0154,0,0,0,0,0,-0.0111,-0.0119,-0.0111,-0.0108,-0.0078,-0.0055,-0.0049,-0.0026,-0.0017,-0.0015,0.0018,0.0035,0.0107,0.0101,0.011,0.0116,0.0185,0.0186,0.0186,0.0157,0.0155,0.0154,0,0,0,0,0,0,-0.0139,-0.0116,-0.0106,-0.0107,-0.0085,-0.005,-0.0048,-0.0029,-0.0002,-0.0,0.004,0.005,0.0078,0.0102,0.0094,0.014,0.0148,0.015,0.0122,0.0121,0.012,0.0106,0.0117,0,0,0,0,0,-0.0148,-0.0149,-0.0119,-0.0121,-0.0113,-0.0081,-0.007,-0.0053,-0.0024,-0.0012,0.0021,0.0056,0.0088,0.0107,0.0136,0.0163,0.0191,0.0172,0.0171,0.017,0.0165,0.0216,0.0218,0.0188,0.0188,0.0188,0,0,-0.0161,-0.0148,-0.0149,-0.0128,-0.011,-0.0103,-0.0074,-0.0062,-0.0051,-0.0007,0.0017,0.005,0.0093,0.0122,0.0137,0.0143,0.0193,0.017,0.0169,0.0165,0.0216,0.0219,0.0222,0.0189,0.0189,0.0189,0,0,-0.0188,-0.0175,-0.0185,-0.0168,-0.0147,-0.0123,-0.0122,-0.0087,-0.0067,-0.004,-0.0004,0.0035,0.0078,0.0117,0.014,0.0149,0.018,0.0154,0.0142,0.0191,0.0194,0.0197,0.0234,0.024,0.0158,0.0158,0.0158,0,-0.0206,-0.0213,-0.0184,-0.0186,-0.0178,-0.0136,-0.0142,-0.0113,-0.0069,-0.005,-0.004,0.0041,0.0076,0.0126,0.0128,0.0147,0.0173,0.0144,0.0189,0.0193,0.0196,0.0233,0.0241,0.0156,0.0157,0.0157,0.0157,0,-0.0236,-0.0241,-0.0246,-0.0235,-0.0219,-0.0218,-0.0175,-0.0155,-0.0126,-0.0091,-0.0041,0.0017,0.0065,0.0085,0.0108,0.0153,0.0162,0.0178,0.0191,0.0197,0.0236,0.0244,0.0154,0.0155,0.0155,0.0156,0,0,-0.0278,-0.0272,-0.0274,-0.0282,-0.0247,-0.0242,-0.0216,-0.0181,-0.0166,-0.0109,-0.008,-0.0011,0.0027,0.0056,0.0101,0.0147,0.0196,0.0167,0.017,0.0198,0.0295,0.0279,0.0287,0.0218,0.022,0.0221,0.0312,0,-0.0315,-0.0344,-0.0319,-0.0338,-0.0349,-0.0299,-0.0282,-0.024,-0.0192,-0.015,-0.007,-0.0029,0.0016,0.0037,0.0094,0.0171,0.0216,0.0169,0.0289,0.0292,0.0274,0.0295,0.0225,0.0318,0.032,0.0321,0.0322,0,-0.0351,-0.0369,-0.0402,-0.04,-0.0398,-0.0397,-0.0363,-0.0341,-0.0261,-0.0221,-0.0148,-0.0084,0.0004,0.0029,0.0175,0.0142,0.0209,0.0269,0.0274,0.0274,0.0291,0.0313,0.0338,0.0336,0.0335,0.0334,0.0333,0,-0.0406,-0.0422,-0.0457,-0.0456,-0.0444,-0.0445,-0.0433,-0.0368,-0.035,-0.0265,-0.0239,-0.0117,-0.0062,0.005,0.0184,0.0178,0.0336,0.0347,0.0398,0.0397,0.0397,0.0394,0.0436,0.0436,0.0436,0.0436,0.0435,0,-0.0451,-0.0478,-0.0493,-0.0512,-0.0552,-0.0513,-0.0525,-0.0488,-0.0428,-0.0408,-0.0287,-0.0238,-0.0057,0.0062,0.0176,0.0318,0.0338,0.0397,0.0423,0.0382,0.0375,0.0403,0.0398,0.0439,0.0438,0.0438,0.0437,0,-0.0497,-0.0507,-0.0553,-0.0569,-0.0583,-0.061,-0.0607,-0.0607,-0.0539,-0.0507,-0.0484,-0.0321,-0.0162,0.0019,0.0211,0.0299,0.0437,0.0476,0.0417,0.0437,0.0464,0.0456,0.054,0.0541,0.0541,0.0541,0.0541,0,-0.0521,-0.0553,-0.0612,-0.0654,-0.0667,-0.0702,-0.0726,-0.0676,-0.0667,-0.0558,-0.0547,-0.0381,-0.0261,0.0004,0.0196,0.0427,0.045,0.0516,0.0492,0.046,0.0477,0.0468,0.0461,0.0542,0.0542,0.0542,0.0542,0,-0.0565,-0.0591,-0.0631,-0.0729,-0.0778,-0.0822,-0.0846,-0.0846,-0.0777,-0.0718,-0.0599,-0.0431,-0.0246,-0.0015,0.0173,0.0334,0.0475,0.0519,0.0519,0.0497,0.0462,0.0477,0.0469,0.0542,0.0542,0.0542,0.0542,0,-0.0595,-0.0639,-0.0707,-0.0785,-0.0862,-0.0916,-0.092,-0.0896,-0.0871,-0.074,-0.0703,-0.0474,-0.0326,-0.0063,0.0109,0.0275,0.0307,0.034,0.035,0.0352,0.0272,0.0198,0.0221,0,0,0,0,0,-0.0615,-0.0672,-0.0758,-0.0841,-0.092,-0.0963,-0.0988,-0.097,-0.0906,-0.0843,-0.0768,-0.0593,-0.0298,-0.0153,0.0006,0.0101,0.0327,0.0291,0.0367,0.0546,0.0546,0.0483,0,0,0,0,0,0,-0.063,-0.0713,-0.0761,-0.0874,-0.094,-0.1017,-0.1038,-0.0997,-0.0947,-0.0857,-0.0701,-0.0578,-0.0293,-0.0397,0.0,0.0058,0.0121,0.0446,0.0448,0.0547,0.0546,0.0546,0.0481,0,0,0,0,0]}]]